Flag for France Weather past 2 weeks in Mulhouse, France

Now
61 °F

Light rain. Partly sunny.


Feels Like: 61 °F
Forecast: 51 / 72 °F
Wind: 6 mph from Southeast

Location: Bale-Mulhouse

Current Time: Jul 29, 2015 at 9:01:08 AM

Latest Report: Jul 29, 2015 at 8:30 AM


Visibility: N/A

Pressure: 29.86 "Hg

Humidity: 72%

Dew point: 52 °F

Location of MulhouseLocation

Historic Weather in Mulhouse — Graph

°F

Mulhouse temperature yesterday

Maximum temperature yesterday: 73 °F (at 5:30 PM)
Minimum temperature yesterday: 61 °F (at 10:30 PM)
Average temperature yesterday: 67 °F

Past Weeks' High & Low Weather Summary

 TemperatureHumidityPressure
High97 °F (Jul 17, 3:00 PM)100% (Jul 26, 5:00 AM)30.15 "Hg (Jul 26, 5:00 AM)
Low46 °F (Jul 26, 6:00 AM)22% (Jul 17, 4:30 PM)29.71 "Hg (Jul 24, 5:30 PM)
Average74 °F62%29.97 "Hg
* Reported Jul 14 8:00 AM — Jul 29 8:00 AM, Mulhouse, Weather by CustomWeather, © 2015

Note: Actual official high and low records may vary slightly from our data, if they occured in-between our weather recording intervals... More about our weather records

Advertising

Mulhouse weather history for previous 24 hours

 ConditionsComfort  
Time TempWeatherWind HumidityBarometerVisibility
8:00 AM
Wed, Jul 29
61 °FLight rain. Partly sunny.5 mph72%29.86 "HgN/A
7:30 AM59 °FLight rain. Broken clouds.6 mph77%29.86 "HgN/A
7:00 AM59 °FPartly cloudy.7 mph77%29.86 "HgN/A
6:30 AM59 °FPassing clouds.5 mph77%29.89 "HgN/A
6:00 AM59 °FPassing clouds.2 mph77%29.89 "HgN/A
5:30 AM59 °FPassing clouds.2 mph77%29.89 "HgN/A
5:00 AM59 °FPassing clouds.3 mph77%29.92 "HgN/A
4:30 AM59 °FPassing clouds.3 mph72%29.92 "HgN/A
4:00 AM59 °FOvercast.3 mph72%29.92 "HgN/A
3:30 AM59 °FMostly cloudy.3 mph77%29.92 "HgN/A
3:00 AM59 °FMostly cloudy.3 mph72%29.92 "HgN/A
2:30 AM59 °FMostly cloudy.5 mph72%29.92 "HgN/A
2:00 AM59 °FPassing clouds.5 mph72%29.95 "HgN/A
1:30 AM59 °FClear.1 mph72%29.95 "Hg10 mi
1:00 AM59 °FClear.2 mph77%29.95 "Hg10 mi
12:30 AM59 °FClear.3 mph77%29.95 "Hg10 mi
12:00 AM61 °FLight rain. Clear.3 mph63%29.95 "HgN/A
11:30 PM
Tue, Jul 28
61 °FLight rain. Clear.7 mph63%29.95 "HgN/A
11:00 PM61 °FLight rain. Clear.8 mph68%29.95 "HgN/A
10:30 PM61 °FLight rain. Clear.9 mph68%29.95 "HgN/A
10:00 PM66 °FLight rain. Clear.15 mph46%29.92 "HgN/A
9:30 PM66 °FLight rain. Clear.5 mph56%29.89 "HgN/A
9:00 PM66 °FLight rain. Clear.5 mph56%29.89 "HgN/A
8:30 PM66 °FSunny.5 mph52%29.89 "Hg10 mi
8:00 PM68 °FSunny.5 mph46%29.86 "Hg10 mi
7:30 PM70 °FPassing clouds.8 mph40%29.86 "HgN/A
7:00 PM70 °FPassing clouds.10 mph40%29.86 "HgN/A
6:30 PM72 °FPassing clouds.9 mph41%29.86 "HgN/A
6:00 PM72 °FPassing clouds.13 mph41%29.86 "HgN/A
5:30 PM73 °FPassing clouds.10 mph38%29.86 "HgN/A
5:00 PM72 °FPassing clouds.12 mph41%29.86 "HgN/A
4:30 PM72 °FPassing clouds.10 mph44%29.86 "HgN/A
4:00 PM72 °FPassing clouds.13 mph47%29.86 "HgN/A
3:30 PM72 °FPassing clouds.14 mph47%29.86 "HgN/A
3:00 PM72 °FPassing clouds.13 mph44%29.86 "HgN/A
2:30 PM72 °FScattered clouds.13 mph44%29.86 "HgN/A
2:00 PM72 °FBroken clouds.14 mph47%29.89 "HgN/A
1:30 PM70 °FBroken clouds.13 mph46%29.89 "HgN/A
1:00 PM68 °FBroken clouds.12 mph53%29.89 "HgN/A
12:30 PM68 °FPartly sunny.12 mph53%29.92 "HgN/A
12:00 PM68 °FBroken clouds.13 mph53%29.92 "HgN/A
11:30 AM66 °FBroken clouds.12 mph56%29.92 "HgN/A
11:00 AM66 °FBroken clouds.12 mph60%29.92 "HgN/A
10:30 AM64 °FBroken clouds.10 mph60%29.92 "HgN/A
10:00 AM64 °FBroken clouds.13 mph60%29.92 "HgN/A
9:30 AM64 °FPartly sunny.13 mph60%29.92 "HgN/A
9:00 AM64 °FPartly sunny.15 mph60%29.92 "HgN/A
Weather by CustomWeather, © 2015

See weather overviewHow to use our weather pages